User: anonymous
Location: Unspecified
(0.0000°N, 0.0000°E)
Time: 14:10:03
(UTC+02:00)
Language:

Ariane H10 - Orbit

View from above orbital plane
View from above orbital plane
View from above satellite
View from above satellite

Ground track
Ground track

The orbit data is extracted from the following two-line orbital elements,

1 21727U 91067B   14110.70828993  .00000839  00000-0  25527-2 0  2126
2 21727 004.2054 082.0508 7193217 296.4057 035.8592 02.31309311151206
Epoch (UTC): 20 April 2014 16:59:56
Eccentricity: 0.7193217
inclination: 4.2054°
perigee height: 400 km
apogee height: 35145 km
right ascension of ascending node: 82.0508°
argument of perigee: 296.4057°
revolutions per day: 2.31309311
mean anomaly at epoch: 35.8592°
orbit number at epoch: 15120

The dashed part of the orbit path shows where the satellite is in the earth's shadow,  

DLR